Вернуться в каталог

CZ-6A DEB

АктивенPO
NORAD 60894·DEBRIS·🇨🇳 China

Запущен Aug 6, 2024 с Taiyuan Satellite Launch Center

Loading…

Ближайшие Пролёты (ближайшие 24 часа)

TLE

СвежийSource: Space-Track

Эпоха: Sep 14, 2026, 11:29 UTC

1 60894U 24140KZ  26257.47878827  .00000465  00000-0  23003-3 0  9997
2 60894  89.0472 270.0969 0073049 297.5706  61.8074 14.14516269106935

Отслеживайте CZ-6A DEB в реальном времени с AllMySat

Download on the App Store